MDT,Max TemperatureF,Mean TemperatureF,Min TemperatureF,Max Dew PointF,MeanDew PointF,Min DewpointF,Max Humidity, Mean Humidity, Min Humidity, Max Sea Level PressureIn, Mean Sea Level PressureIn, Min Sea Level PressureIn, Max VisibilityMiles, Mean VisibilityMiles, Min VisibilityMiles, Max Wind SpeedMPH, Mean Wind SpeedMPH, Max Gust SpeedMPH,PrecipitationIn, CloudCover, Events, WindDirDegrees
2013-5-1,41,34,28,35,29,25,98,90,78,30.59,30.34,30.01,10,5,1,23,14,33,0.00,8,,16
2013-5-2,49,36,22,28,19,6,92,57,19,30.67,30.57,30.41,10,10,10,14,7,20,0.00,2,,288
2013-5-3,64,44,24,31,21,13,89,50,14,30.41,30.22,30.08,10,10,10,17,6,24,0.00,0,,327
2013-5-4,61,45,29,27,21,17,81,43,20,30.25,30.17,30.13,10,10,10,16,7,23,0.00,0,,52
2013-5-5,60,45,30,28,21,15,65,40,21,30.26,30.19,30.11,10,10,10,17,8,23,0.00,1,,81
2013-5-6,73,52,32,38,29,20,82,46,19,30.12,30.02,29.91,10,10,10,20,9,26,0.00,1,,124
2013-5-7,70,54,38,44,40,36,95,62,29,30.01,29.94,29.90,10,10,10,21,7,26,0.00,3,Rain-Thunderstorm,39
2013-5-8,74,57,40,47,43,34,96,70,24,30.08,30.00,29.94,10,10,4,32,9,44,0.00,2,Rain-Thunderstorm,254
2013-5-9,65,55,45,45,40,32,89,59,32,30.20,30.14,30.07,10,10,10,20,11,28,0.00,4,Thunderstorm,32
2013-5-10,70,54,39,45,38,32,96,59,24,30.31,30.20,30.17,10,9,2,26,6,36,0.00,2,Rain-Thunderstorm,328
2013-5-11,67,56,45,48,39,32,88,59,31,30.43,30.34,30.24,10,10,7,28,8,37,0.00,3,Rain,42
2013-5-12,82,62,42,48,37,28,95,48,14,30.24,30.16,30.09,10,10,5,17,7,31,0.00,1,,290
2013-5-13,87,66,45,45,41,30,87,48,13,30.15,30.09,30.02,10,10,10,14,6,16,0.00,0,,231
2013-5-14,86,68,50,47,42,22,80,47,14,30.02,29.96,29.90,10,10,10,22,7,36,0.00,1,,260
2013-5-15,84,68,52,51,45,40,77,48,22,29.98,29.94,29.87,10,10,10,30,7,38,0.00,2,Rain-Thunderstorm,69
2013-5-16,86,68,50,53,45,33,90,54,16,29.93,29.88,29.80,10,10,5,17,6,23,0.00,2,Rain,127
2013-5-17,82,68,53,53,46,34,89,56,21,29.91,29.84,29.74,10,10,10,21,10,26,0.00,0,,162
2013-5-18,80,62,45,48,42,32,76,49,19,29.89,29.82,29.72,10,10,10,24,9,29,0.00,2,Thunderstorm,313
2013-5-19,63,56,48,48,42,37,79,60,39,29.84,29.81,29.77,10,10,5,24,11,30,0.00,4,Thunderstorm,346
2013-5-20,64,56,46,48,40,32,92,62,36,30.00,29.91,29.84,10,10,7,45,18,51,0.00,5,,317
2013-5-21,70,56,43,37,32,26,75,46,19,30.04,29.97,29.88,10,10,10,28,17,34,0.00,3,,337
2013-5-22,73,55,37,44,39,33,85,52,32,30.13,29.98,29.91,10,10,10,23,7,30,0.00,1,,69
2013-5-23,61,53,45,51,47,44,95,76,62,30.17,30.11,30.06,10,9,2,28,16,36,0.00,8,Thunderstorm,113
2013-5-24,84,70,55,56,51,33,86,62,15,30.07,29.96,29.89,10,10,10,24,12,29,0.00,2,,119
2013-5-25,81,66,51,57,52,43,95,73,30,30.03,29.93,29.85,10,9,0,21,9,25,0.00,1,Fog,44
2013-5-26,82,66,51,53,45,29,93,49,16,29.93,29.88,29.84,10,10,7,21,8,28,0.00,0,Thunderstorm,17
2013-5-27,79,66,53,59,48,38,91,59,24,29.87,29.80,29.70,10,10,5,25,8,31,0.00,1,Thunderstorm,264
2013-5-28,84,66,47,52,41,24,84,47,13,29.84,29.71,29.56,10,10,7,30,11,59,0.00,1,Thunderstorm,99
2013-5-29,68,60,49,50,45,39,93,62,36,29.72,29.66,29.60,10,10,4,28,17,38,0.00,5,Thunderstorm,335
2013-5-30,74,58,42,42,32,20,85,43,14,29.85,29.71,29.67,10,10,10,29,10,36,0.00,1,,277
2013-5-31,73,56,38,38,27,19,74,35,13,30.04,29.88,29.82,10,10,10,30,16,48,0.00,1,,296